STARLINK-1729

Last updated on Fri Nov 06 2020 00:02:03 GMT+0000 (Coordinated Universal Time)

1 46583U 20070BD 20310.00128778 -.00500477 00000-0 -79978-2 0 9991 2 46583 53.0009 297.1688 0001102 144.9963 215.1118 15.54311439 5455

Satellite not in orbit